Regional Weather Roundup
Issued by NWS

Home | Current Version | Previous Version | Graphics & Text | Print | Product List | Glossary Off
Versions: 1 2 3 4 5 6 7 8 9 10 11 12 13 14 15 16 17 18 19 20 21 22 23 24 25 26 27 28 29 30 31 32 33 34 35 36 37 38 39 40 41 42 43 44 45 46 47 48 49 50

000
ASUS45 KCYS 280710
RWRWY

WYOMING REGIONAL WEATHER ROUNDUP
NATIONAL WEATHER SERVICE CHEYENNE WY
100 AM MDT SUN AUG 28 2016

NOTE:  "FAIR" INDICATES FEW OR NO CLOUDS BELOW 12,000 FEET
WITH NO SIGNIFICANT WEATHER AND/OR OBSTRUCTIONS TO VISIBILITY.

WYZ001-280800-
YELLOWSTONE NATIONAL PARK

CITY           SKY/WX    TMP DP  RH WIND       PRES   REMARKS
LK YELLOWSTONE   N/A     38  29  70 NW3       30.25R
W YELLOWSTONE  NOT AVBL

$$
WYZ002>013-054>058-071-098>099-280800-
NORTHERN WYOMING

CITY           SKY/WX    TMP DP  RH WIND       PRES   REMARKS
JACKSON        FAIR      43  27  52 N7        30.17R
CODY           FAIR      64  28  25 S9        30.01R
GREYBULL       FAIR      63  32  31 E3        29.94R
WORLAND        FAIR      58  33  39 SW7       29.95R
SHERIDAN       FAIR      52  41  66 CALM      29.92R
BUFFALO        FAIR      69  26  20 SW3       29.99F
GILLETTE       FAIR      54  40  59 S5        29.95S
HULETT         FAIR      63  37  39 CALM      29.98R
NEWCASTLE      FAIR      68  39  34 E9        29.99S

$$
WYZ014>020-022>026-101>103-280800-
CENTRAL WYOMING

CITY           SKY/WX    TMP DP  RH WIND       PRES   REMARKS
BIG PINEY      FAIR      45  28  51 E7        30.24R
PINEDALE       FAIR      41  30  65 N5        30.25R
DUBOIS         FAIR      50  19  29 NW10      30.19R
LANDER         FAIR      60  29  30 CALM      30.07R
RIVERTON       FAIR      60  28  29 W12       30.07R
CASPER         FAIR      54  37  52 SW9       30.05S
DOUGLAS        FAIR      52  32  46 SE3       30.05R

$$
WYZ021-027>030-104>119-280800-
SOUTHERN WYOMING

CITY           SKY/WX    TMP DP  RH WIND       PRES   REMARKS
EVANSTON       FAIR      55  24  30 S7        30.25R
FORT BRIDGER   FAIR      60  25  26 SW10      30.27R
ROCK SPRINGS   FAIR      57  21  24 SW10      30.22R
DIXON          FAIR      51  32  48 CALM      30.26R
RAWLINS        FAIR      56  28  34 S7        30.21R
LARAMIE        FAIR      44  32  62 S10       30.24S
CHEYENNE       FAIR      57  40  52 SW7       30.18R
TORRINGTON     FAIR      63  43  48 NE3       30.03R
PINE BLUFFS    FAIR      54  46  76 W6        30.14R

$$



USA.gov is the U.S. government's official web portal to all federal, state and local government web resources and services.